Back to catalog

STARLINK-30571

AliveCommunicationsVLEO
NORAD 58066·PAYLOAD·🇺🇸 United States

Launched Oct 13, 2023 from Cape Canaveral Space Force Station

Loading…

Next Passes (next 24 hours)

TLE

FreshSource: CelesTrak SupGP

Epoch: Sep 14, 2026, 21:42 UTC

1 58066C 23158R   26257.90465278  .00040925  00000+0  14820-2 0  2570
2 58066  43.0015  38.6650 0001511 270.7345 157.3450 15.27565036    10

Track STARLINK-30571 in real time with AllMySat

Download on the App Store